[[{"header":{"parameterUnit":"m.s-1","parameterCategory":2,"la1":30.2991,"la2":30.254,"lo1":-89.0895,"lo2":-89.0444,"dy":0.0017,"dx":0.0017,"nx":28,"ny":28,"refTime":"2024-08-20T21:00:00:Z","depth":"0","parameterNumber":2,"parameterNumberName":"U-component_of_CURRENTS"},"data":[0,0,0,0,0,0,0,0,0,0,0,0,0,0,0,0,0,0,0,0,0,0,0,0,0,0,0,0,0,0,0,0,0,0,0,0,0,0,0,0,0,0,0,0,0,0,0,0,0,0,0,0,0,0,0,0,0,0,-0.2833,-0.2836,0,-0.3006,-0.3007,-0.3008,-0.3009,-0.3007,-0.3006,-0.3005,-0.297,-0.297,-0.297,0,0,0,0,0,0,0,0,0,0,0,0,0,-0.2587,-0.259,-0.2833,-0.2836,-0.2839,-0.3006,-0.3007,-0.3009,-0.3009,-0.3007,-0.3006,-0.3005,-0.297,-0.297,-0.297,0,0,0,0,0,0,0,0,0,0,0,0,0,-0.2708,-0.2591,-0.2832,-0.2869,-0.2875,-0.3006,-0.3007,-0.3009,-0.3009,-0.3007,-0.3006,-0.3004,-0.297,-0.297,-0.297,-0.3004,0,0,-0.297,-0.297,0,0,0,0,0,0,0,0,-0.2701,-0.2716,-0.286,-0.2867,-0.2874,-0.2995,-0.2909,-0.3001,-0.3009,-0.2945,-0.3005,-0.3003,-0.2968,-0.2968,-0.299,-0.3002,-0.3,-0.297,-0.297,-0.297,-0.297,0,0,0,0,0,0,0,-0.2693,-0.2709,-0.2889,-0.2864,-0.2872,-0.2907,-0.292,-0.2927,-0.295,-0.295,-0.2954,-0.2994,-0.2968,-0.299,-0.2989,-0.3,-0.297,-0.297,-0.297,-0.297,-0.3008,-0.3009,0,0,0,0,0,0,-0.2695,-0.2701,-0.2883,-0.2895,-0.2796,-0.2913,-0.2927,-0.2947,-0.2955,-0.296,-0.2995,-0.2993,-0.299,-0.2989,-0.2987,-0.3024,-0.297,-0.297,-0.2971,-0.3007,-0.3008,-0.3009,0,0,0,0,0,0,-0.2688,-0.2708,-0.2877,-0.2813,-0.2838,-0.292,-0.2942,-0.2952,-0.2975,-0.2993,-0.2991,-0.3009,-0.2989,-0.2987,-0.3001,-0.3022,-0.2971,-0.2971,-0.3006,-0.3007,-0.3008,-0.3098,0,0,0,0,0,0,-0.268,-0.2704,-0.2707,-0.2813,-0.2843,-0.2956,-0.2946,-0.2957,-0.3008,-0.3007,-0.3005,-0.3,-0.2988,-0.3002,-0.3002,-0.3021,-0.2971,-0.3004,-0.3006,-0.3008,-0.3094,-0.3102,-0.311,0,0,0,0,0,-0.267,-0.2691,-0.2705,-0.2728,-0.2847,-0.2959,-0.2976,-0.302,-0.301,-0.303,-0.3029,-0.3,-0.3011,-0.3004,-0.3003,-0.3023,-0.3004,-0.3006,-0.3008,-0.3091,-0.3101,-0.3109,0,0,0,0,0,0,-0.2592,-0.2698,-0.2715,-0.2766,-0.2857,-0.2964,-0.2991,-0.3027,-0.3047,-0.3034,-0.3024,-0.3022,-0.304,-0.3019,-0.3011,-0.3036,-0.2998,-0.3,-0.3061,-0.307,-0.3078,-0.3058,-0.2971,0,0,0,0,0,-0.2579,-0.2609,-0.2729,-0.2768,-0.281,-0.2898,-0.2944,-0.2988,-0.3037,-0.3044,-0.3048,-0.3042,-0.3052,-0.3051,-0.3053,-0.3074,-0.3053,-0.308,-0.3088,-0.3095,-0.3077,-0.3089,-0.3097,-0.3016,-0.3016,-0.3016,0,0,-0.2564,-0.2625,-0.2644,-0.2753,-0.2814,-0.2891,-0.2917,-0.3001,-0.3055,-0.3035,-0.3071,-0.3074,-0.3065,-0.3091,-0.3096,-0.3074,-0.3111,-0.3098,-0.3104,-0.3082,-0.3092,-0.31,-0.3107,-0.3017,-0.3017,-0.3017,0,0,-0.2559,-0.2599,-0.2625,-0.2701,-0.2815,-0.2886,-0.2912,-0.3022,-0.305,-0.3112,-0.3104,-0.3121,-0.3136,-0.3142,-0.3144,-0.3193,-0.3156,-0.3187,-0.3209,-0.3223,-0.3229,-0.3235,-0.3236,-0.3241,-0.3187,-0.3187,-0.3187,0,-0.2533,-0.2581,-0.2655,-0.2711,-0.2772,-0.2881,-0.2939,-0.3009,-0.3106,-0.3132,-0.3123,-0.3168,-0.3161,-0.3199,-0.3209,-0.3212,-0.3203,-0.3181,-0.3234,-0.3239,-0.3243,-0.3242,-0.3247,-0.3191,-0.3191,-0.319,-0.319,0,-0.2562,-0.2597,-0.2626,-0.272,-0.2799,-0.2871,-0.2994,-0.3059,-0.3108,-0.3172,-0.3223,-0.3234,-0.325,-0.3262,-0.3248,-0.3279,-0.3259,-0.325,-0.3213,-0.3257,-0.3253,-0.3256,-0.3198,-0.3196,-0.3195,-0.3194,0,0,-0.2503,-0.2617,-0.262,-0.2652,-0.2805,-0.2873,-0.2978,-0.3098,-0.315,-0.3232,-0.328,-0.3315,-0.332,-0.3319,-0.3317,-0.3326,-0.3358,-0.3293,-0.3292,-0.3298,-0.3377,-0.3142,-0.3123,-0.336,-0.3361,-0.3361,-0.3369,0,-0.2494,-0.2564,-0.2635,-0.2712,-0.2765,-0.2889,-0.2968,-0.3091,-0.3184,-0.3262,-0.3313,-0.3347,-0.3346,-0.3341,-0.3364,-0.3357,-0.3365,-0.3355,-0.3327,-0.3326,-0.3116,-0.3118,-0.2951,-0.2923,-0.3372,-0.3372,-0.3372,0,-0.2495,-0.2539,-0.2596,-0.2692,-0.2723,-0.2788,-0.293,-0.3014,-0.3169,-0.3228,-0.3307,-0.3355,-0.34,-0.3377,-0.3409,-0.3402,-0.3383,-0.3379,-0.338,-0.312,-0.3094,-0.2947,-0.2911,-0.2886,-0.3376,-0.3376,-0.3376,0,-0.2416,-0.2508,-0.2538,-0.2579,-0.2718,-0.2754,-0.2828,-0.2991,-0.3047,-0.3196,-0.323,-0.3342,-0.3336,-0.3384,-0.3365,-0.3398,-0.3367,-0.3422,-0.3204,-0.3189,-0.3014,-0.2978,-0.2942,-0.3424,-0.3424,-0.3424,-0.3424,0,-0.2385,-0.2402,-0.2492,-0.2514,-0.2549,-0.2667,-0.273,-0.2834,-0.2957,-0.3004,-0.3168,-0.3184,-0.3325,-0.3336,-0.3366,-0.3251,-0.3368,-0.3182,-0.3161,-0.3037,-0.3006,-0.2944,-0.2984,-0.3424,-0.3424,-0.3424,-0.3424,0,-0.2296,-0.2358,-0.2393,-0.249,-0.2515,-0.2536,-0.2641,-0.2689,-0.2805,-0.2869,-0.2899,-0.3047,-0.3044,-0.314,-0.3183,-0.317,-0.306,-0.3066,-0.2891,-0.2843,-0.2609,-0.2659,-0.2552,-0.2485,-0.2873,-0.2867,-0.2862,0,-0.2254,-0.2263,-0.234,-0.2352,-0.2384,-0.2434,-0.247,-0.2599,-0.2651,-0.2754,-0.2758,-0.2786,-0.2787,-0.2759,-0.2743,-0.2738,-0.2786,-0.2566,-0.2583,-0.2528,-0.2575,-0.2626,-0.2586,-0.243,-0.2422,-0.2415,-0.241,0,-0.2161,-0.2186,-0.221,-0.2236,-0.2259,-0.2295,-0.2348,-0.2363,-0.2494,-0.2526,-0.2535,-0.2531,-0.2469,-0.2366,-0.23,-0.2296,-0.2465,-0.2419,-0.2438,-0.2248,-0.2232,-0.2177,-0.2507,-0.235,-0.2356,-0.236,-0.2364,-0.2366,-0.207,-0.2062,-0.2091,-0.2101,-0.2126,-0.213,-0.2111,-0.2175,-0.2187,-0.2193,-0.2265,-0.2196,-0.2112,-0.1981,-0.1935,-0.1804,-0.1971,-0.1821,-0.1902,-0.1972,-0.1831,-0.1975,-0.1727,-0.1729,-0.1731,-0.1733,-0.1735,0,-0.1954,-0.1953,-0.1956,-0.196,-0.1925,-0.1989,-0.2006,-0.1964,-0.1914,-0.1938,-0.1909,-0.1811,-0.1634,-0.1592,-0.146,-0.1376,-0.1409,-0.1372,-0.1485,-0.1484,-0.1668,-0.1566,-0.1176,-0.1176,-0.1176,-0.1176,-0.1176,-0.1176,-0.1892,-0.1846,-0.1845,-0.1746,-0.1743,-0.1654,-0.1628,-0.1586,-0.158,-0.1493,-0.1463,-0.1485,-0.1458,-0.145,-0.1288,-0.1201,-0.1244,-0.1136,-0.1242,-0.1455,-0.1507,-0.1557,-0.1469,-0.1065,-0.1065,-0.099,-0.099,-0.0989]},{"header":{"parameterUnit":"m.s-1","parameterCategory":2,"la1":30.2991,"la2":30.254,"lo1":-89.0895,"lo2":-89.0444,"dy":0.0017,"dx":0.0017,"nx":28,"ny":28,"refTime":"2024-08-20T21:00:00:Z","depth":"0","parameterNumber":3,"parameterNumberName":"V-component_of_CURRENTS"},"data":[0,0,0,0,0,0,0,0,0,0,0,0,0,0,0,0,0,0,0,0,0,0,0,0,0,0,0,0,0,0,0,0,0,0,0,0,0,0,0,0,0,0,0,0,0,0,0,0,0,0,0,0,0,0,0,0,0,0,-0.0308,-0.0308,0,-0.0259,-0.0258,-0.0257,-0.0215,-0.0215,-0.0215,-0.0215,-0.0081,-0.0077,-0.0074,0,0,0,0,0,0,0,0,0,0,0,0,0,-0.0309,-0.0309,-0.0308,-0.0308,-0.0308,-0.0259,-0.0258,-0.0257,-0.0215,-0.0215,-0.0215,-0.0215,-0.0082,-0.0078,-0.0074,0,0,0,0,0,0,0,0,0,0,0,0,0,-0.0286,-0.0309,-0.0308,-0.0284,-0.0282,-0.0259,-0.0258,-0.0257,-0.0215,-0.0215,-0.0215,-0.0215,-0.0083,-0.0078,-0.0073,-0.0044,0,0,-0.0057,-0.0055,0,0,0,0,0,0,0,0,-0.0287,-0.0285,-0.0288,-0.0286,-0.0283,-0.0247,-0.0209,-0.0183,-0.0215,-0.0237,-0.0215,-0.0215,-0.0131,-0.0122,-0.0109,-0.0038,-0.0032,-0.0057,-0.0053,-0.0051,-0.005,0,0,0,0,0,0,0,-0.0289,-0.0287,-0.0285,-0.0288,-0.0285,-0.0256,-0.0253,-0.0204,-0.0181,-0.0235,-0.0233,-0.0233,-0.0128,-0.0114,-0.0105,-0.003,-0.0057,-0.0052,-0.0049,-0.0047,0.0066,0.0066,0,0,0,0,0,0,-0.0306,-0.0289,-0.0287,-0.0284,-0.0289,-0.0257,-0.0253,-0.0255,-0.0183,-0.0174,-0.0233,-0.0232,-0.0123,-0.0111,-0.01,-0.0066,-0.0051,-0.0046,-0.0043,0.0066,0.0066,0.0066,0,0,0,0,0,0,-0.0306,-0.0306,-0.0289,-0.0288,-0.0284,-0.0258,-0.026,-0.0254,-0.0244,-0.0184,-0.0172,-0.023,-0.0122,-0.0107,-0.0068,-0.006,-0.0044,-0.0039,0.0066,0.0066,0.0066,0.0006,0,0,0,0,0,0,-0.0306,-0.0307,-0.0313,-0.0289,-0.0285,-0.0287,-0.0261,-0.0254,-0.0246,-0.0243,-0.0177,-0.0164,-0.0121,-0.0076,-0.0063,-0.0052,-0.0035,0.0067,0.0066,0.0066,0.0009,0.0004,0.0001,0,0,0,0,0,-0.0307,-0.0328,-0.0314,-0.0314,-0.0296,-0.0288,-0.0283,-0.026,-0.0247,-0.0248,-0.0205,-0.0166,-0.0068,-0.0072,-0.0056,-0.0044,0.0067,0.0066,0.0066,0.001,0.0005,0.0001,0,0,0,0,0,0,-0.0339,-0.0325,-0.031,-0.0326,-0.0311,-0.0283,-0.0286,-0.0267,-0.0234,-0.0232,-0.0168,-0.0152,-0.0114,-0.0075,-0.0081,-0.0014,0.0006,0.0009,-0.0041,-0.0046,-0.005,-0.007,-0.0031,0,0,0,0,0,-0.0348,-0.0354,-0.0334,-0.0346,-0.0342,-0.0312,-0.0306,-0.0293,-0.0264,-0.025,-0.02,-0.0149,-0.0102,-0.0073,-0.0029,0.001,0.0032,0.0027,0.0023,0.0019,0.0013,0.0047,0.0045,0.0065,0.0065,0.0065,0,0,-0.0365,-0.0358,-0.0361,-0.0353,-0.0337,-0.034,-0.0308,-0.031,-0.0304,-0.0239,-0.0211,-0.0162,-0.0097,-0.0058,-0.0036,-0.0023,0.0023,0.0019,0.0015,0.0011,0.0046,0.0044,0.0042,0.0065,0.0065,0.0065,0,0,-0.041,-0.0394,-0.0416,-0.0403,-0.0392,-0.0371,-0.0375,-0.0348,-0.0327,-0.0301,-0.0248,-0.0199,-0.0131,-0.0078,-0.0043,-0.0042,-0.0003,-0.0027,-0.0055,-0.0023,-0.0025,-0.0026,-0.0014,-0.0014,-0.0024,-0.0024,-0.0025,0,-0.0431,-0.0453,-0.0422,-0.0435,-0.0431,-0.0388,-0.0408,-0.0379,-0.034,-0.032,-0.0304,-0.0199,-0.0139,-0.008,-0.0078,-0.0049,-0.0038,-0.0042,-0.0029,-0.003,-0.003,-0.0017,-0.0016,-0.0027,-0.0027,-0.0027,-0.0026,0,-0.0486,-0.0501,-0.0513,-0.0509,-0.0496,-0.0509,-0.0467,-0.0449,-0.0417,-0.0381,-0.0326,-0.0248,-0.0186,-0.0153,-0.0112,-0.0075,-0.0071,-0.0043,-0.0021,-0.0036,-0.0022,-0.0019,-0.0032,-0.003,-0.003,-0.0029,0,0,-0.0543,-0.0554,-0.0558,-0.0571,-0.0538,-0.0542,-0.0519,-0.0491,-0.0483,-0.0422,-0.0401,-0.0302,-0.0258,-0.0216,-0.015,-0.0112,-0.0096,-0.0084,-0.0081,-0.0081,-0.0049,0.0003,0.0011,-0.0073,-0.0072,-0.0072,-0.0044,0,-0.0598,-0.0651,-0.063,-0.0666,-0.0684,-0.063,-0.0612,-0.0572,-0.0526,-0.0491,-0.0397,-0.0351,-0.0281,-0.0254,-0.0202,-0.012,-0.0091,-0.0108,-0.0028,-0.0026,0.0017,0.0016,0.0037,0.0068,-0.0042,-0.0041,-0.0041,0,-0.0656,-0.0683,-0.0735,-0.0746,-0.0748,-0.0753,-0.072,-0.0701,-0.0623,-0.0588,-0.0517,-0.0445,-0.0358,-0.031,-0.0185,-0.0204,-0.0138,-0.0078,-0.0075,-0.0003,0.0032,0.007,0.0077,0.0222,-0.0037,-0.0037,-0.0038,0,-0.0714,-0.0756,-0.0804,-0.0805,-0.0802,-0.0808,-0.0796,-0.0731,-0.0718,-0.0648,-0.0631,-0.0519,-0.0463,-0.0365,-0.021,-0.0213,-0.0084,-0.0071,0.0033,0.0036,0.0084,0.0092,0.0238,-0.0004,-0.0004,-0.0004,-0.0005,0,-0.0776,-0.0815,-0.084,-0.0865,-0.0914,-0.0875,-0.0898,-0.0867,-0.0816,-0.08,-0.0688,-0.0651,-0.0476,-0.0364,-0.0246,-0.0086,-0.0108,0.0025,0.0053,0.0064,0.0069,0.0222,0.0282,-0.0003,-0.0004,-0.0004,-0.0004,0,-0.0829,-0.0847,-0.0908,-0.0935,-0.0947,-0.0977,-0.0981,-0.0989,-0.093,-0.0907,-0.0889,-0.0753,-0.0601,-0.0416,-0.0241,-0.0126,0.0106,0.0074,0.0071,0.0099,0.0318,0.0372,0.0529,0.0615,0.0166,0.0167,0.0169,0,-0.0862,-0.0899,-0.0969,-0.1011,-0.103,-0.1066,-0.1086,-0.1052,-0.105,-0.0963,-0.0958,-0.0806,-0.0683,-0.0399,-0.0164,0.0054,0.0177,0.0193,0.0205,0.0339,0.0419,0.0456,0.0519,0.0232,0.0233,0.0235,0.0236,0,-0.0916,-0.0943,-0.0995,-0.1085,-0.1135,-0.1188,-0.1209,-0.1224,-0.1163,-0.1123,-0.1038,-0.0936,-0.0639,-0.0357,-0.0047,0.008,0.0306,0.0228,0.0374,0.0493,0.0534,0.0627,0.019,0.0248,0.0247,0.0246,0.0246,0.0245,-0.0949,-0.1006,-0.1075,-0.1157,-0.122,-0.1281,-0.131,-0.1308,-0.1296,-0.1202,-0.1103,-0.0914,-0.0505,-0.0063,0.0098,0.0453,0.042,0.0547,0.0599,0.0622,0.0725,0.0312,0.0406,0.0406,0.0406,0.0406,0.0405,0,-0.0983,-0.1051,-0.1138,-0.1238,-0.1311,-0.1326,-0.1368,-0.1362,-0.1335,-0.1213,-0.1094,-0.0652,-0.0255,0.0133,0.0627,0.0816,0.0856,0.0911,0.0968,0.1014,0.0655,0.0681,0.0832,0.0831,0.0831,0.0831,0.0831,0.0831,-0.1004,-0.1096,-0.1149,-0.1283,-0.1348,-0.1412,-0.1427,-0.1403,-0.1313,-0.1074,-0.0822,-0.0618,-0.0056,0.0705,0.1149,0.1178,0.135,0.1331,0.1434,0.1187,0.1157,0.1128,0.117,0.1421,0.1421,0.1775,0.1779,0.1781]}],[{"header":{"parameterUnit":"m.s-1","parameterCategory":2,"la1":30.2991,"la2":30.254,"lo1":-89.0895,"lo2":-89.0444,"dy":0.0017,"dx":0.0017,"nx":28,"ny":28,"refTime":"2024-08-20T21:00:00:Z","depth":"2","parameterNumber":2,"parameterNumberName":"U-component_of_CURRENTS"},"data":[0,0,0,0,0,0,0,0,0,0,0,0,0,0,0,0,0,0,0,0,0,0,0,0,0,0,0,0,0,0,0,0,0,0,0,0,0,0,0,0,0,0,0,0,0,0,0,0,0,0,0,0,0,0,0,0,0,0,-0.2428,-0.2429,0,-0.2549,-0.2551,-0.2552,-0.2591,-0.259,-0.2589,-0.2588,-0.2645,-0.2647,-0.265,0,0,0,0,0,0,0,0,0,0,0,0,0,-0.231,-0.2312,-0.2428,-0.2429,-0.2431,-0.2549,-0.2551,-0.2553,-0.2591,-0.259,-0.2589,-0.2588,-0.2644,-0.2647,-0.265,0,0,0,0,0,0,0,0,0,0,0,0,0,-0.2392,-0.2312,-0.2428,-0.2461,-0.2465,-0.2548,-0.2551,-0.2553,-0.2591,-0.259,-0.2588,-0.2587,-0.2644,-0.2647,-0.265,-0.2698,0,0,-0.2661,-0.2663,0,0,0,0,0,0,0,0,-0.2387,-0.2397,-0.2455,-0.2459,-0.2464,-0.255,-0.253,-0.2597,-0.2591,-0.2547,-0.2588,-0.2587,-0.2606,-0.2613,-0.2644,-0.2701,-0.2703,-0.2661,-0.2663,-0.2665,-0.2666,0,0,0,0,0,0,0,-0.2381,-0.2392,-0.2479,-0.2457,-0.2462,-0.2497,-0.2507,-0.2544,-0.2584,-0.2551,-0.2553,-0.2561,-0.2609,-0.2641,-0.2646,-0.2704,-0.2661,-0.2664,-0.2667,-0.2668,-0.2829,-0.2831,0,0,0,0,0,0,-0.2357,-0.2387,-0.2476,-0.2483,-0.2418,-0.25,-0.2511,-0.2527,-0.2585,-0.2592,-0.2562,-0.2563,-0.2636,-0.2641,-0.2648,-0.2706,-0.2665,-0.2668,-0.267,-0.2827,-0.283,-0.2832,0,0,0,0,0,0,-0.2355,-0.2365,-0.2471,-0.2434,-0.245,-0.2502,-0.252,-0.253,-0.2567,-0.2594,-0.26,-0.2589,-0.2635,-0.2643,-0.2684,-0.2708,-0.267,-0.2673,-0.2824,-0.2828,-0.2831,-0.2823,0,0,0,0,0,0,-0.2351,-0.2363,-0.2371,-0.2433,-0.2451,-0.2519,-0.2521,-0.2533,-0.2572,-0.2574,-0.2619,-0.2623,-0.2634,-0.2679,-0.2688,-0.2712,-0.2676,-0.2822,-0.2826,-0.283,-0.282,-0.2825,-0.283,0,0,0,0,0,-0.2346,-0.2365,-0.2371,-0.2382,-0.2458,-0.2519,-0.2533,-0.2568,-0.2574,-0.2597,-0.2625,-0.2622,-0.2711,-0.2683,-0.2693,-0.2719,-0.282,-0.2825,-0.283,-0.2818,-0.2824,-0.283,0,0,0,0,0,0,-0.2319,-0.2372,-0.238,-0.2413,-0.2458,-0.2524,-0.2547,-0.2576,-0.2622,-0.2619,-0.2645,-0.2652,-0.2697,-0.272,-0.2688,-0.2783,-0.2768,-0.2775,-0.2756,-0.2763,-0.2767,-0.2746,-0.2679,0,0,0,0,0,-0.2315,-0.234,-0.2394,-0.2419,-0.244,-0.2496,-0.2526,-0.2553,-0.2598,-0.2618,-0.2652,-0.2691,-0.2729,-0.2751,-0.2786,-0.2839,-0.2839,-0.2867,-0.2872,-0.2875,-0.2869,-0.2891,-0.2895,-0.2848,-0.2848,-0.2848,0,0,-0.2307,-0.2341,-0.2353,-0.2414,-0.245,-0.2491,-0.2512,-0.2558,-0.2592,-0.2615,-0.2671,-0.2704,-0.2747,-0.2798,-0.2823,-0.2817,-0.2892,-0.2882,-0.2884,-0.2875,-0.2896,-0.29,-0.2904,-0.2852,-0.2851,-0.285,0,0,-0.2309,-0.2336,-0.2358,-0.2399,-0.2453,-0.249,-0.2504,-0.2575,-0.2603,-0.2669,-0.2686,-0.2732,-0.2809,-0.2834,-0.2858,-0.2917,-0.2912,-0.2941,-0.2949,-0.2971,-0.2974,-0.2976,-0.2982,-0.2985,-0.2948,-0.2948,-0.2948,0,-0.2295,-0.2331,-0.2374,-0.2411,-0.244,-0.2488,-0.2522,-0.2567,-0.2644,-0.2665,-0.2683,-0.2799,-0.2825,-0.2882,-0.2899,-0.2924,-0.2929,-0.2916,-0.2972,-0.2975,-0.2978,-0.2983,-0.2986,-0.2948,-0.2948,-0.2948,-0.2948,0,-0.2317,-0.2346,-0.2364,-0.242,-0.2463,-0.2497,-0.2557,-0.2602,-0.2646,-0.2687,-0.2761,-0.2819,-0.2881,-0.291,-0.2921,-0.2964,-0.296,-0.2966,-0.2944,-0.2981,-0.2985,-0.2988,-0.2948,-0.2948,-0.2948,-0.2948,0,0,-0.227,-0.2359,-0.236,-0.2387,-0.2467,-0.2503,-0.2559,-0.2617,-0.2653,-0.2732,-0.2789,-0.2862,-0.289,-0.2921,-0.2953,-0.298,-0.3,-0.2979,-0.2981,-0.296,-0.3036,-0.282,-0.2803,-0.3011,-0.3012,-0.3013,-0.3029,0,-0.2265,-0.2319,-0.2372,-0.2421,-0.2454,-0.2519,-0.2572,-0.2631,-0.2691,-0.2757,-0.2818,-0.288,-0.2896,-0.2933,-0.2962,-0.3001,-0.3009,-0.2994,-0.3025,-0.3026,-0.2808,-0.2799,-0.2607,-0.2586,-0.3032,-0.3033,-0.3033,0,-0.2258,-0.2297,-0.234,-0.2424,-0.2444,-0.2483,-0.2564,-0.2615,-0.2704,-0.2757,-0.2826,-0.2878,-0.2941,-0.295,-0.3016,-0.3006,-0.3008,-0.3031,-0.3033,-0.283,-0.2814,-0.2626,-0.2575,-0.3039,-0.3038,-0.3038,-0.3038,0,-0.219,-0.2271,-0.2298,-0.2327,-0.2432,-0.2461,-0.251,-0.2602,-0.2641,-0.2742,-0.2785,-0.2881,-0.2919,-0.2971,-0.2984,-0.3017,-0.3028,-0.3085,-0.2891,-0.2877,-0.2715,-0.2682,-0.3097,-0.3097,-0.3097,-0.3097,-0.3097,0,-0.2159,-0.2178,-0.2267,-0.2282,-0.2319,-0.2411,-0.2459,-0.2525,-0.2619,-0.2647,-0.2761,-0.2792,-0.2921,-0.2938,-0.2979,-0.2904,-0.3014,-0.2869,-0.2854,-0.2705,-0.2674,-0.3074,-0.3071,-0.3098,-0.3098,-0.3098,-0.3097,0,-0.2076,-0.2136,-0.2171,-0.2263,-0.2287,-0.2307,-0.2403,-0.2436,-0.2536,-0.2581,-0.2607,-0.2719,-0.2733,-0.2804,-0.2868,-0.2843,-0.2838,-0.277,-0.2562,-0.2519,-0.2696,-0.2694,-0.262,-0.2612,-0.2606,-0.26,-0.2595,0,-0.2038,-0.2047,-0.2123,-0.2136,-0.2171,-0.2221,-0.2251,-0.2368,-0.2403,-0.2508,-0.2511,-0.2547,-0.2533,-0.2526,-0.2492,-0.2481,-0.2619,-0.2276,-0.229,-0.2647,-0.2643,-0.265,-0.2656,-0.2106,-0.2098,-0.2091,-0.2086,0,-0.1952,-0.1977,-0.2002,-0.2028,-0.2054,-0.2089,-0.2142,-0.216,-0.2277,-0.2312,-0.2329,-0.2325,-0.228,-0.2154,-0.2077,-0.2062,-0.2275,-0.2131,-0.2568,-0.2216,-0.2151,-0.2151,-0.2176,-0.2025,-0.2032,-0.2036,-0.2039,-0.2042,-0.1871,-0.1864,-0.1893,-0.1904,-0.1931,-0.1933,-0.1915,-0.1978,-0.1992,-0.2005,-0.208,-0.2011,-0.1997,-0.1782,-0.1684,-0.1629,-0.1823,-0.1807,-0.1834,-0.1867,-0.1764,-0.1686,-0.1455,-0.1457,-0.146,-0.1462,-0.1464,0,-0.1764,-0.1764,-0.1769,-0.1773,-0.1741,-0.1802,-0.1816,-0.1777,-0.1733,-0.1765,-0.1744,-0.1552,-0.1417,-0.1423,-0.1235,-0.1187,-0.1252,-0.1151,-0.1266,-0.1323,-0.1375,-0.1254,-0.0807,-0.0805,-0.0804,-0.0802,0,0,-0.1708,-0.1666,-0.1663,-0.1571,-0.1571,-0.1488,-0.1462,-0.1422,-0.142,-0.1348,-0.131,-0.1371,-0.1392,-0.1114,-0.1028,-0.0895,-0.1114,-0.0843,-0.1368,-0.1563,-0.1613,-0.1743,-0.1616,0,0,0,0,0]},{"header":{"parameterUnit":"m.s-1","parameterCategory":2,"la1":30.2991,"la2":30.254,"lo1":-89.0895,"lo2":-89.0444,"dy":0.0017,"dx":0.0017,"nx":28,"ny":28,"refTime":"2024-08-20T21:00:00:Z","depth":"2","parameterNumber":3,"parameterNumberName":"V-component_of_CURRENTS"},"data":[0,0,0,0,0,0,0,0,0,0,0,0,0,0,0,0,0,0,0,0,0,0,0,0,0,0,0,0,0,0,0,0,0,0,0,0,0,0,0,0,0,0,0,0,0,0,0,0,0,0,0,0,0,0,0,0,0,0,-0.0184,-0.0184,0,-0.0128,-0.0128,-0.0127,-0.0088,-0.0088,-0.0088,-0.0088,0.0039,0.0042,0.0045,0,0,0,0,0,0,0,0,0,0,0,0,0,-0.0199,-0.0199,-0.0184,-0.0184,-0.0183,-0.0129,-0.0128,-0.0127,-0.0088,-0.0088,-0.0088,-0.0088,0.0038,0.0041,0.0045,0,0,0,0,0,0,0,0,0,0,0,0,0,-0.0171,-0.0199,-0.0185,-0.0159,-0.0157,-0.0129,-0.0128,-0.0126,-0.0088,-0.0088,-0.0088,-0.0088,0.0036,0.0041,0.0046,0.0074,0,0,0.0061,0.0063,0,0,0,0,0,0,0,0,-0.0172,-0.017,-0.0164,-0.0161,-0.0158,-0.0117,-0.0086,-0.0057,-0.0088,-0.0112,-0.0088,-0.0088,-0.0009,0.0,0.0013,0.008,0.0085,0.0061,0.0064,0.0067,0.0068,0,0,0,0,0,0,0,-0.0175,-0.0172,-0.016,-0.0163,-0.016,-0.0131,-0.0127,-0.008,-0.0058,-0.0109,-0.0107,-0.0105,-0.0006,0.0008,0.0016,0.0087,0.0061,0.0066,0.0069,0.0071,0.0178,0.0178,0,0,0,0,0,0,-0.019,-0.0174,-0.0162,-0.0158,-0.0168,-0.0131,-0.0127,-0.0128,-0.006,-0.0051,-0.0105,-0.0103,-0.0001,0.001,0.0021,0.0051,0.0067,0.0071,0.0074,0.0178,0.0178,0.0178,0,0,0,0,0,0,-0.019,-0.0189,-0.0164,-0.0166,-0.0162,-0.0132,-0.0133,-0.0127,-0.0118,-0.0058,-0.0047,-0.0103,-0.0,0.0014,0.0051,0.0057,0.0073,0.0078,0.0178,0.0178,0.0178,0.0117,0,0,0,0,0,0,-0.0191,-0.019,-0.0197,-0.0168,-0.0162,-0.0159,-0.0134,-0.0127,-0.0117,-0.0115,-0.0052,-0.004,0.0001,0.0043,0.0056,0.0064,0.0082,0.0178,0.0178,0.0178,0.0119,0.0114,0.0111,0,0,0,0,0,-0.0192,-0.0211,-0.0198,-0.0197,-0.0173,-0.016,-0.0154,-0.013,-0.0118,-0.0119,-0.0078,-0.0042,0.0051,0.0047,0.0062,0.0071,0.0178,0.0178,0.0178,0.0121,0.0115,0.0111,0,0,0,0,0,0,-0.0226,-0.0207,-0.0193,-0.0207,-0.0188,-0.0154,-0.0157,-0.0136,-0.0105,-0.0105,-0.0043,-0.0029,0.0007,0.0045,0.0038,0.0101,0.0121,0.0124,0.0073,0.0068,0.0064,0.0045,0.0086,0,0,0,0,0,-0.0236,-0.0242,-0.0217,-0.0227,-0.0221,-0.0188,-0.018,-0.0165,-0.0134,-0.0121,-0.0074,-0.0025,0.0019,0.0045,0.0088,0.0123,0.0156,0.0138,0.0134,0.0131,0.0125,0.0173,0.0172,0.0177,0.0177,0.0177,0,0,-0.0252,-0.0244,-0.0247,-0.0234,-0.0217,-0.0216,-0.0183,-0.0181,-0.0175,-0.0111,-0.0086,-0.0038,0.0023,0.0059,0.0079,0.0092,0.0146,0.013,0.0127,0.0123,0.0172,0.0172,0.0171,0.0177,0.0177,0.0177,0,0,-0.0296,-0.028,-0.0302,-0.0286,-0.0271,-0.0247,-0.025,-0.0218,-0.0199,-0.0173,-0.0122,-0.0076,-0.0011,0.0037,0.007,0.007,0.012,0.0086,0.0055,0.0102,0.0102,0.0102,0.0138,0.0142,0.0086,0.0086,0.0086,0,-0.0316,-0.0338,-0.0306,-0.0318,-0.0311,-0.0265,-0.0282,-0.0253,-0.0211,-0.0193,-0.0178,-0.0076,-0.0022,0.0033,0.0033,0.0062,0.0089,0.0068,0.0096,0.0097,0.0098,0.0135,0.014,0.0083,0.0084,0.0084,0.0084,0,-0.0369,-0.0384,-0.0395,-0.0391,-0.0376,-0.0385,-0.0341,-0.0322,-0.0291,-0.0255,-0.0202,-0.0129,-0.0069,-0.0039,-0.0001,0.0041,0.0058,0.0082,0.0105,0.0094,0.0133,0.014,0.0079,0.008,0.0081,0.0082,0,0,-0.0422,-0.0434,-0.0437,-0.0452,-0.0417,-0.0417,-0.0396,-0.0366,-0.0358,-0.0298,-0.0275,-0.0186,-0.0142,-0.0103,-0.004,0.0007,0.0046,0.0042,0.0046,0.0071,0.0139,0.0147,0.0156,0.0073,0.0074,0.0074,0.016,0,-0.0475,-0.0526,-0.0507,-0.0541,-0.0557,-0.0503,-0.0487,-0.0447,-0.0401,-0.0364,-0.0274,-0.023,-0.0166,-0.014,-0.0081,0.0017,0.0061,0.002,0.0151,0.0155,0.0159,0.0163,0.0161,0.0237,0.0166,0.0168,0.0168,0,-0.0529,-0.0556,-0.0606,-0.0619,-0.0621,-0.0625,-0.0591,-0.0574,-0.0495,-0.046,-0.0389,-0.0317,-0.0225,-0.0182,-0.0025,-0.0056,0.0029,0.0103,0.0109,0.0142,0.0176,0.0239,0.0252,0.018,0.0179,0.0178,0.0177,0,-0.0583,-0.0625,-0.0672,-0.0672,-0.0671,-0.0678,-0.0668,-0.0603,-0.0592,-0.0518,-0.05,-0.0379,-0.0322,-0.0196,-0.0037,-0.0032,0.0125,0.0154,0.0241,0.0243,0.028,0.0283,0.0248,0.0248,0.0248,0.0248,0.0248,0,-0.064,-0.0679,-0.0707,-0.073,-0.0779,-0.0743,-0.0766,-0.0735,-0.0685,-0.067,-0.0558,-0.0518,-0.0324,-0.0203,-0.0063,0.0109,0.0109,0.0235,0.0267,0.0258,0.0258,0.024,0.0238,0.0251,0.025,0.025,0.0249,0,-0.0687,-0.0707,-0.0767,-0.0796,-0.0809,-0.0838,-0.0847,-0.0854,-0.0799,-0.0774,-0.0755,-0.0617,-0.0451,-0.0259,-0.0046,0.0071,0.0234,0.029,0.0259,0.0287,0.0326,0.032,0.0399,0.04,0.0401,0.0402,0.0403,0,-0.0717,-0.0753,-0.0824,-0.0865,-0.0885,-0.0922,-0.0943,-0.0914,-0.0911,-0.0829,-0.082,-0.0667,-0.0539,-0.0233,0.0002,0.0246,0.0259,0.0369,0.0381,0.0318,0.0343,0.0335,0.0328,0.041,0.0411,0.0411,0.0411,0,-0.0767,-0.0794,-0.0844,-0.0932,-0.0982,-0.1034,-0.1057,-0.1072,-0.1017,-0.0976,-0.0888,-0.0783,-0.0489,-0.0206,0.0095,0.0234,0.0332,0.0386,0.0345,0.0361,0.0333,0.0354,0.0347,0.0416,0.0416,0.0415,0.0415,0.0415,-0.0797,-0.085,-0.0919,-0.0997,-0.106,-0.1119,-0.1146,-0.1144,-0.1129,-0.1029,-0.0932,-0.073,-0.0477,-0.0028,0.0182,0.0385,0.038,0.0458,0.0455,0.0452,0.0427,0.04,0.0492,0.0492,0.0492,0.0492,0.0492,0,-0.083,-0.0894,-0.0977,-0.1072,-0.1142,-0.116,-0.12,-0.119,-0.1156,-0.1018,-0.089,-0.0592,-0.0277,-0.001,0.0319,0.0492,0.0482,0.0523,0.0496,0.0491,0.0486,0.0462,0.0537,0.0538,0.0538,0.0539,0,0,-0.0851,-0.0937,-0.0986,-0.1112,-0.1174,-0.1236,-0.125,-0.1218,-0.1116,-0.0969,-0.079,-0.0567,-0.0244,-0.0001,0.0226,0.0405,0.0396,0.0412,0.0361,0.0299,0.0292,0.0438,0.0393,0,0,0,0,0]}],[{"header":{"parameterUnit":"m.s-1","parameterCategory":2,"la1":30.2991,"la2":30.254,"lo1":-89.0895,"lo2":-89.0444,"dy":0.0017,"dx":0.0017,"nx":28,"ny":28,"refTime":"2024-08-20T21:00:00:Z","depth":"4","parameterNumber":2,"parameterNumberName":"U-component_of_CURRENTS"},"data":[0,0,0,0,0,0,0,0,0,0,0,0,0,0,0,0,0,0,0,0,0,0,0,0,0,0,0,0,0,0,0,0,0,0,0,0,0,0,0,0,0,0,0,0,0,0,0,0,0,0,0,0,0,0,0,0,0,0,-0.1624,-0.1623,0,-0.1534,-0.1533,-0.1532,-0.1493,-0.1494,-0.1494,-0.1495,-0.1493,-0.1493,-0.1492,0,0,0,0,0,0,0,0,0,0,0,0,0,-0.1603,-0.1604,-0.1624,-0.1623,-0.1622,-0.1535,-0.1533,-0.1531,-0.1493,-0.1494,-0.1494,-0.1495,-0.1493,-0.1493,-0.1492,0,0,0,0,0,0,0,0,0,0,0,0,0,-0.157,-0.1605,-0.1624,-0.1595,-0.1592,-0.1535,-0.1533,-0.1531,-0.1493,-0.1494,-0.1494,-0.1495,-0.1494,-0.1493,-0.1492,-0.1475,0,0,-0.149,-0.149,0,0,0,0,0,0,0,0,-0.1572,-0.1571,-0.16,-0.1597,-0.1593,-0.1528,-0.1525,-0.1518,-0.1493,-0.1527,-0.1495,-0.1495,-0.1515,-0.1512,-0.1488,-0.1474,-0.1474,-0.149,-0.149,-0.1489,-0.1489,0,0,0,0,0,0,0,-0.1575,-0.1573,-0.1585,-0.1599,-0.1595,-0.1532,-0.1529,-0.1522,-0.1517,-0.1524,-0.1522,-0.1517,-0.1513,-0.1489,-0.1488,-0.1474,-0.149,-0.1489,-0.1489,-0.1489,-0.1569,-0.1571,0,0,0,0,0,0,-0.16,-0.1577,-0.1588,-0.1583,-0.1588,-0.1533,-0.1529,-0.1546,-0.1515,-0.1512,-0.1516,-0.1516,-0.149,-0.1489,-0.1488,-0.1532,-0.1489,-0.1489,-0.1488,-0.1567,-0.157,-0.1572,0,0,0,0,0,0,-0.16,-0.1603,-0.1592,-0.1578,-0.1573,-0.1534,-0.1552,-0.1544,-0.1544,-0.1509,-0.1507,-0.1529,-0.149,-0.1489,-0.1498,-0.1529,-0.1488,-0.1488,-0.1564,-0.1567,-0.1571,-0.1577,0,0,0,0,0,0,-0.1601,-0.1604,-0.163,-0.1581,-0.1575,-0.1574,-0.1551,-0.1542,-0.154,-0.1539,-0.1519,-0.1517,-0.1491,-0.1499,-0.1497,-0.1527,-0.1487,-0.156,-0.1565,-0.157,-0.1573,-0.158,-0.1586,0,0,0,0,0,-0.16,-0.1627,-0.1633,-0.1634,-0.1612,-0.1575,-0.1566,-0.1536,-0.1541,-0.1539,-0.1529,-0.1519,-0.153,-0.1499,-0.1497,-0.1528,-0.1558,-0.1564,-0.1569,-0.1571,-0.1579,-0.1586,0,0,0,0,0,0,-0.1617,-0.1624,-0.163,-0.1656,-0.1629,-0.157,-0.1575,-0.1555,-0.1541,-0.1558,-0.1525,-0.1522,-0.1542,-0.1547,-0.1514,-0.1574,-0.1554,-0.1559,-0.1556,-0.1564,-0.157,-0.1587,-0.1487,0,0,0,0,0,-0.164,-0.1673,-0.1649,-0.1668,-0.1671,-0.1632,-0.1619,-0.16,-0.1577,-0.1572,-0.1561,-0.1567,-0.156,-0.1571,-0.1565,-0.1589,-0.1591,-0.1622,-0.1629,-0.1634,-0.1653,-0.1661,-0.1668,-0.1591,-0.1591,-0.1591,0,0,-0.1646,-0.1659,-0.1673,-0.1676,-0.1663,-0.1662,-0.1626,-0.1622,-0.1618,-0.1578,-0.1593,-0.1579,-0.157,-0.1585,-0.16,-0.1596,-0.166,-0.1641,-0.1644,-0.1661,-0.1668,-0.1675,-0.1681,-0.1595,-0.1594,-0.1594,0,0,-0.1663,-0.17,-0.1727,-0.1727,-0.1726,-0.1698,-0.1709,-0.1679,-0.1672,-0.1674,-0.1647,-0.1655,-0.1659,-0.1646,-0.1642,-0.1693,-0.1683,-0.1713,-0.1763,-0.177,-0.1776,-0.178,-0.179,-0.1796,-0.1728,-0.1728,-0.1728,0,-0.1672,-0.1707,-0.172,-0.1746,-0.1754,-0.1727,-0.1742,-0.1722,-0.1695,-0.1703,-0.1697,-0.1706,-0.1688,-0.1697,-0.1709,-0.1704,-0.171,-0.1719,-0.1774,-0.1779,-0.1784,-0.1792,-0.1798,-0.1729,-0.1729,-0.1729,-0.1729,0,-0.1693,-0.1737,-0.1755,-0.1791,-0.1799,-0.1806,-0.1797,-0.1808,-0.1809,-0.1788,-0.181,-0.1779,-0.1791,-0.1788,-0.1755,-0.1791,-0.1784,-0.1763,-0.174,-0.1791,-0.1798,-0.1804,-0.173,-0.173,-0.173,-0.1729,0,0,-0.1662,-0.1753,-0.176,-0.1795,-0.1831,-0.1827,-0.1861,-0.1862,-0.1889,-0.1879,-0.1909,-0.1886,-0.1882,-0.188,-0.1849,-0.1855,-0.1873,-0.1832,-0.1831,-0.1818,-0.1897,-0.1768,-0.1762,-0.1854,-0.1856,-0.1857,-0.1886,0,-0.1667,-0.1727,-0.1776,-0.1824,-0.1851,-0.1885,-0.1915,-0.1928,-0.1939,-0.1962,-0.1946,-0.1957,-0.1912,-0.1922,-0.1919,-0.1876,-0.1891,-0.1868,-0.1873,-0.1873,-0.1731,-0.1765,-0.1861,-0.189,-0.1891,-0.1892,-0.1893,0,-0.1657,-0.1704,-0.1763,-0.1858,-0.1878,-0.1911,-0.1977,-0.1995,-0.2032,-0.2054,-0.2076,-0.2059,-0.2057,-0.2018,-0.1995,-0.1982,-0.1957,-0.1927,-0.1927,-0.1811,-0.1755,-0.1835,-0.1904,-0.1903,-0.1902,-0.1901,-0.1901,0,-0.1594,-0.1691,-0.1741,-0.1772,-0.1869,-0.1921,-0.1963,-0.2023,-0.2046,-0.2108,-0.2143,-0.2145,-0.2149,-0.2117,-0.2062,-0.2032,-0.2044,-0.1991,-0.1861,-0.1852,-0.1954,-0.1949,-0.2003,-0.2003,-0.2003,-0.2003,-0.2003,0,-0.1558,-0.1603,-0.1725,-0.1749,-0.1814,-0.1904,-0.1971,-0.2024,-0.21,-0.2114,-0.2176,-0.218,-0.2176,-0.217,-0.2109,-0.2003,-0.2085,-0.1878,-0.185,-0.1958,-0.1953,-0.1957,-0.1952,-0.2004,-0.2004,-0.2003,-0.2003,0,-0.1475,-0.1556,-0.1621,-0.1746,-0.1786,-0.1829,-0.1953,-0.1985,-0.2093,-0.212,-0.2141,-0.2211,-0.2189,-0.219,-0.215,-0.2049,-0.1974,-0.1932,-0.2078,-0.2057,-0.1765,-0.176,-0.1756,-0.1752,-0.1748,-0.1745,-0.1742,0,-0.1434,-0.1461,-0.1591,-0.1626,-0.1688,-0.1773,-0.1817,-0.1944,-0.1973,-0.2093,-0.2079,-0.2137,-0.215,-0.2017,-0.2028,-0.1949,-0.1913,-0.1886,-0.1788,-0.1766,-0.174,-0.1741,-0.1741,-0.1737,-0.1736,-0.1735,-0.1734,0,-0.1351,-0.1411,-0.1463,-0.153,-0.159,-0.1646,-0.1723,-0.1734,-0.1854,-0.1975,-0.1956,-0.194,-0.1938,-0.1898,-0.1896,-0.1821,-0.1895,-0.1846,-0.1851,-0.1759,-0.1742,-0.172,-0.1725,-0.1721,-0.1723,-0.1724,-0.1725,0,-0.1287,-0.13,-0.1371,-0.1414,-0.1481,-0.1489,-0.1554,-0.1588,-0.1637,-0.1775,-0.1753,-0.1822,-0.1906,-0.1832,-0.1801,-0.1752,-0.1678,-0.1591,-0.1607,-0.1622,-0.1558,-0.1517,-0.1408,0,0,0,0,0,-0.1215,-0.1214,-0.1247,-0.1287,-0.1344,-0.1377,-0.1472,-0.1541,-0.1658,-0.159,-0.1671,-0.1652,-0.1614,-0.1656,-0.1563,-0.1706,-0.1682,-0.1589,-0.1591,-0.165,-0.1665,-0.1599,0,0,0,0,0,0,-0.1167,-0.1197,-0.1202,-0.116,-0.116,-0.1202,-0.1253,-0.1337,-0.1321,-0.145,-0.1444,-0.1533,-0.1531,-0.1638,-0.1524,-0.1531,-0.149,-0.1637,-0.1631,-0.1642,-0.1655,-0.1667,-0.1605,0,0,0,0,0]},{"header":{"parameterUnit":"m.s-1","parameterCategory":2,"la1":30.2991,"la2":30.254,"lo1":-89.0895,"lo2":-89.0444,"dy":0.0017,"dx":0.0017,"nx":28,"ny":28,"refTime":"2024-08-20T21:00:00:Z","depth":"4","parameterNumber":3,"parameterNumberName":"V-component_of_CURRENTS"},"data":[0,0,0,0,0,0,0,0,0,0,0,0,0,0,0,0,0,0,0,0,0,0,0,0,0,0,0,0,0,0,0,0,0,0,0,0,0,0,0,0,0,0,0,0,0,0,0,0,0,0,0,0,0,0,0,0,0,0,-0.0131,-0.0131,0,-0.011,-0.011,-0.0109,-0.0091,-0.0091,-0.0091,-0.0091,-0.0042,-0.0041,-0.004,0,0,0,0,0,0,0,0,0,0,0,0,0,-0.0135,-0.0135,-0.0131,-0.0131,-0.0131,-0.011,-0.011,-0.0109,-0.0091,-0.0091,-0.0091,-0.0091,-0.0043,-0.0041,-0.004,0,0,0,0,0,0,0,0,0,0,0,0,0,-0.0125,-0.0135,-0.0131,-0.012,-0.0119,-0.011,-0.011,-0.0109,-0.0091,-0.0091,-0.0091,-0.0091,-0.0043,-0.0042,-0.004,-0.0033,0,0,-0.0034,-0.0034,0,0,0,0,0,0,0,0,-0.0125,-0.0124,-0.0122,-0.0121,-0.0119,-0.0104,-0.0093,-0.0082,-0.0091,-0.0101,-0.0091,-0.0091,-0.0061,-0.0058,-0.0053,-0.003,-0.0028,-0.0034,-0.0033,-0.0032,-0.0032,0,0,0,0,0,0,0,-0.0126,-0.0125,-0.0122,-0.0122,-0.012,-0.0108,-0.0107,-0.0091,-0.0081,-0.01,-0.0099,-0.0098,-0.006,-0.0055,-0.0052,-0.0028,-0.0034,-0.0033,-0.0032,-0.0031,0.0004,0.0004,0,0,0,0,0,0,-0.0131,-0.0126,-0.0123,-0.0122,-0.0123,-0.0109,-0.0107,-0.0108,-0.0082,-0.0078,-0.0098,-0.0097,-0.0058,-0.0054,-0.005,-0.0052,-0.0032,-0.0031,-0.003,0.0005,0.0004,0.0004,0,0,0,0,0,0,-0.0132,-0.0131,-0.0124,-0.0124,-0.0122,-0.0109,-0.0111,-0.0108,-0.0106,-0.0081,-0.0076,-0.0099,-0.0058,-0.0053,-0.0042,-0.0049,-0.003,-0.0028,0.0005,0.0004,0.0004,-0.0047,0,0,0,0,0,0,-0.0132,-0.0132,-0.0139,-0.0124,-0.0122,-0.0127,-0.0111,-0.0108,-0.0106,-0.0104,-0.008,-0.0075,-0.0057,-0.0045,-0.004,-0.0046,-0.0027,0.0005,0.0005,0.0004,-0.0045,-0.0049,-0.0052,0,0,0,0,0,-0.0132,-0.0147,-0.014,-0.0139,-0.0131,-0.0128,-0.0126,-0.0115,-0.0106,-0.0111,-0.0093,-0.0076,-0.0043,-0.0044,-0.0038,-0.0044,0.0005,0.0005,0.0004,-0.0044,-0.0048,-0.0052,0,0,0,0,0,0,-0.0156,-0.0146,-0.0138,-0.015,-0.0141,-0.0125,-0.0131,-0.0119,-0.0109,-0.0109,-0.008,-0.0074,-0.0071,-0.0047,-0.0049,-0.0033,-0.0015,-0.0014,-0.0053,-0.0058,-0.0061,-0.0064,-0.0026,0,0,0,0,0,-0.0164,-0.0171,-0.0156,-0.0167,-0.0164,-0.0147,-0.0145,-0.0137,-0.0124,-0.012,-0.0099,-0.0078,-0.0067,-0.0055,-0.0043,-0.0031,0.0007,-0.0029,-0.0033,-0.0036,-0.0034,0.0014,0.0015,0.0003,0.0003,0.0003,0,0,-0.0176,-0.0172,-0.0176,-0.0172,-0.0165,-0.0168,-0.0145,-0.0149,-0.0151,-0.0116,-0.0112,-0.0096,-0.007,-0.0064,-0.0058,-0.0043,-0.0011,-0.0036,-0.0039,-0.0036,0.0014,0.0015,0.0016,0.0003,0.0003,0.0003,0,0,-0.021,-0.02,-0.022,-0.0212,-0.0206,-0.0192,-0.0195,-0.0178,-0.0171,-0.0166,-0.0144,-0.0127,-0.0106,-0.0085,-0.0073,-0.0085,-0.004,-0.0082,-0.0093,-0.0047,-0.0046,-0.0044,0.001,0.0017,-0.0074,-0.0074,-0.0074,0,-0.0226,-0.0247,-0.0225,-0.0238,-0.0237,-0.0205,-0.0222,-0.0208,-0.019,-0.0182,-0.0174,-0.0136,-0.0116,-0.0098,-0.0104,-0.0093,-0.0056,-0.0083,-0.0052,-0.0049,-0.0046,0.0009,0.0017,-0.0077,-0.0076,-0.0076,-0.0076,0,-0.0268,-0.0285,-0.0295,-0.0297,-0.0291,-0.0302,-0.0275,-0.0267,-0.025,-0.0231,-0.0215,-0.0181,-0.0154,-0.0146,-0.0131,-0.0104,-0.008,-0.0071,-0.0043,-0.0049,0.001,0.002,-0.008,-0.0079,-0.0079,-0.0078,0,0,-0.0305,-0.0324,-0.0329,-0.0345,-0.0324,-0.0329,-0.0321,-0.0308,-0.0306,-0.0274,-0.0263,-0.0235,-0.0204,-0.0188,-0.0157,-0.0113,-0.0064,-0.0086,-0.0082,-0.0035,0.0047,0.0028,0.0038,-0.005,-0.0049,-0.0048,0.0082,0,-0.0348,-0.0394,-0.0385,-0.0421,-0.0437,-0.0402,-0.0399,-0.0376,-0.0349,-0.0326,-0.0273,-0.0259,-0.0223,-0.0214,-0.0162,-0.0097,-0.0042,-0.01,0.0049,0.0054,0.0035,0.0047,-0.0044,0.009,0.0092,0.0094,0.0095,0,-0.0388,-0.0415,-0.0463,-0.0487,-0.0491,-0.0502,-0.0486,-0.0481,-0.0428,-0.0406,-0.0357,-0.0312,-0.0246,-0.022,-0.0083,-0.0121,-0.004,0.002,0.0027,0.0034,0.0052,0.0097,0.0113,0.0112,0.011,0.0109,0.0108,0,-0.0422,-0.0469,-0.0515,-0.0519,-0.0533,-0.0547,-0.0548,-0.0507,-0.0508,-0.0452,-0.044,-0.0346,-0.0305,-0.0191,-0.0066,-0.007,0.0088,0.01,0.0169,0.017,0.0171,0.0168,0.0205,0.0205,0.0204,0.0204,0.0204,0,-0.0461,-0.05,-0.0542,-0.0565,-0.0617,-0.0599,-0.0631,-0.0612,-0.0581,-0.0575,-0.0488,-0.0456,-0.0298,-0.0189,-0.0069,0.0077,0.0094,0.0173,0.02,0.0147,0.0139,0.0179,0.0174,0.0209,0.0208,0.0207,0.0206,0,-0.0485,-0.0514,-0.0574,-0.0618,-0.0638,-0.067,-0.0702,-0.0713,-0.0678,-0.0662,-0.0648,-0.0531,-0.0382,-0.0218,-0.0025,0.0063,0.0206,0.0256,0.0192,0.0213,0.0265,0.0257,0.0356,0.0357,0.0357,0.0357,0.0357,0,-0.0501,-0.0535,-0.0619,-0.0662,-0.0692,-0.074,-0.0768,-0.0762,-0.0761,-0.0704,-0.0692,-0.0559,-0.0459,-0.0189,-0.0028,0.0212,0.0238,0.0311,0.0287,0.0264,0.0281,0.0271,0.0262,0.0358,0.0358,0.0358,0.0358,0,-0.0527,-0.0564,-0.0613,-0.0705,-0.0763,-0.082,-0.0854,-0.0863,-0.0833,-0.0813,-0.0708,-0.0566,-0.0395,-0.0185,-0.0003,0.0163,0.0259,0.0315,0.0316,0.0294,0.0267,0.0281,0.0272,0.0359,0.0359,0.0359,0.0359,0,-0.0544,-0.0589,-0.066,-0.0736,-0.0814,-0.0867,-0.0887,-0.087,-0.0865,-0.0784,-0.0751,-0.0565,-0.0451,-0.021,-0.0047,0.0116,0.0159,0.0201,0.0208,0.0209,0.0115,0.0055,0.0112,0,0,0,0,0,-0.0552,-0.0608,-0.0685,-0.0772,-0.0846,-0.0887,-0.0926,-0.0926,-0.09,-0.0826,-0.0781,-0.0615,-0.0358,-0.0251,-0.0085,-0.0052,0.0172,0.0143,0.0219,0.0366,0.0364,0.0275,0,0,0,0,0,0,-0.0562,-0.0638,-0.0683,-0.0778,-0.0835,-0.0912,-0.0935,-0.0921,-0.0863,-0.0813,-0.0668,-0.0591,-0.0335,-0.0443,-0.0084,-0.0038,0.0028,0.0267,0.027,0.0366,0.0365,0.0364,0.0272,0,0,0,0,0]}]]